Weather History for Dublin, VA

Change the Weather History Date:

Monday, October 7, 2013

  Actual Average (KBCB) Record (KBCB)
Temperature  
Mean Temperature 60 °F 55 °F  
Max Temperature 68 °F 68 °F 87 °F (2007)
Min Temperature 51 °F 42 °F 25 °F (1988)
Degree Days  
Heating Degree Days 6 10  
Month to date heating degree days 65  
Since 1 July heating degree days 196  
Cooling Degree Days 0 0  
Month to date cooling degree days 1  
Year to date cooling degree days 570  
Growing Degree Days 10 (Base 50)    
Moisture  
Dew Point 54 °F    
Average Humidity 81    
Maximum Humidity 100    
Minimum Humidity 55    
Precipitation  
Precipitation 0.37 in 0.09 in 1.88 in (2013)
Month to date precipitation 0.62  
Year to date precipitation 32.91  
Snow  
Snow 0.00 in - - ()
Month to date snowfall  
Since 1 July snowfall  
Since 1 September snowfall  
Snow Depth -    
Sea Level Pressure  
Sea Level Pressure 29.98 in    
Wind  
Wind Speed 6 mph (West)    
Max Wind Speed 14 mph    
Max Gust Speed 18 mph    
Visibility 10 miles    
Events Rain , Thunderstorm    
T = Trace of Precipitation, MM = Missing Value Source: NWS Daily Summary

Daily Weather History Graph

Daily Weather History Graph

Search for Another Location

Airport:

Trip Planner

Search our weather history database for the weather conditions in past years. The results will help you decide how hot, cold, wet, or windy it might be!

Date:

Astronomy

Oct. 07, 2013 Rise Set
Actual Time 7:23 AM EDT 6:56 PM EDT
Civil Twilight 6:57 AM EDT 7:22 PM EDT
Nautical Twilight 6:27 AM EDT 7:52 PM EDT
Astronomical Twilight 5:57 AM EDT 8:23 PM EDT
Moon 10:07 AM EDT (10/7) 8:45 PM EDT (10/7)
Length of Visible Light 12h 25m
Length of Day
11h 33m
Waxing Crescent, 8% of the Moon is Illuminated
Oct 7
Waxing Crescent
Oct 11
First Quarter
Oct 18
Full
Oct 26
Last Quarter
Nov 3
New

Hourly Weather History & Observations

Time (EDT) Temp. Dew Point Humidity Pressure Visibility Wind Dir Wind Speed Gust Speed Precip Events Conditions
12:15 AM 64.4 °F 62.6 °F 94% 29.96 in 10.0 mi Calm Calm - N/A   Mostly Cloudy
12:35 AM 68.0 °F 62.6 °F 83% 29.96 in 10.0 mi South 13.8 mph - N/A   Mostly Cloudy
12:55 AM 68.0 °F 62.6 °F 83% 29.95 in 10.0 mi South 9.2 mph - N/A   Overcast
1:15 AM 66.2 °F 62.6 °F 88% 29.94 in 10.0 mi South 6.9 mph - N/A   Mostly Cloudy
1:35 AM 66.2 °F 62.6 °F 88% 29.94 in 10.0 mi South 9.2 mph - N/A   Clear
1:55 AM 66.2 °F 62.6 °F 88% 29.93 in 10.0 mi South 9.2 mph - N/A   Scattered Clouds
2:15 AM 68.0 °F 62.6 °F 83% 29.92 in 10.0 mi SSW 6.9 mph - N/A   Mostly Cloudy
2:35 AM 68.0 °F 62.6 °F 83% 29.92 in 7.0 mi SSW 8.1 mph - 0.01 in Rain Rain
2:55 AM 66.2 °F 64.4 °F 94% 29.92 in 7.0 mi Calm Calm - 0.02 in Rain Rain
3:35 AM 64.4 °F 64.4 °F 100% 29.90 in 3.0 mi SW 3.5 mph - 0.13 in Rain Heavy Rain
3:55 AM 64.4 °F 64.4 °F 100% 29.90 in 7.0 mi SSW 5.8 mph - 0.08 in Rain Heavy Rain
4:15 AM 64.4 °F 64.4 °F 100% 29.89 in 10.0 mi Calm Calm - 0.01 in Rain Rain
4:35 AM 64.4 °F 64.4 °F 100% 29.89 in 10.0 mi Calm Calm - N/A Rain Rain
4:55 AM 64.4 °F 64.4 °F 100% 29.88 in 7.0 mi SSE 4.6 mph - 0.04 in Rain Heavy Rain
5:15 AM 64.4 °F 64.4 °F 100% 29.88 in 10.0 mi SSW 6.9 mph - 0.02 in Rain Rain
5:35 AM 62.6 °F 62.6 °F 100% 29.89 in 10.0 mi SSW 3.5 mph - 0.03 in Rain Rain
5:55 AM 62.6 °F 62.6 °F 100% 29.88 in 10.0 mi South 4.6 mph - 0.02 in Rain , Thunderstorm Thunderstorms and Rain
6:15 AM 62.6 °F 62.6 °F 100% 29.88 in 10.0 mi WSW 4.6 mph - 0.04 in Rain Rain
6:35 AM 62.6 °F 62.6 °F 100% 29.88 in 10.0 mi WSW 4.6 mph - 0.07 in Rain Heavy Rain
6:55 AM 62.6 °F 62.6 °F 100% 29.89 in 10.0 mi West 5.8 mph - 0.03 in Rain Rain
7:15 AM 62.6 °F 62.6 °F 100% 29.88 in 10.0 mi South 3.5 mph - 0.02 in Rain Rain
7:35 AM 62.6 °F 62.6 °F 100% 29.89 in 10.0 mi SW 6.9 mph - 0.04 in Rain Heavy Rain
7:55 AM 62.6 °F 62.6 °F 100% 29.89 in 10.0 mi West 6.9 mph - 0.03 in Rain Rain
8:15 AM 62.6 °F 62.6 °F 100% 29.91 in 10.0 mi WNW 9.2 mph - 0.03 in Rain Rain
8:35 AM 57.2 °F 57.2 °F 100% 29.91 in 10.0 mi NW 6.9 mph - 0.04 in Rain Heavy Rain
8:55 AM 57.2 °F 57.2 °F 100% 29.95 in 10.0 mi WNW 10.4 mph - N/A Rain Light Rain
9:15 AM 55.4 °F 55.4 °F 100% 29.94 in 10.0 mi WNW 6.9 mph - N/A Rain Rain
9:35 AM 55.4 °F 55.4 °F 100% 29.97 in 10.0 mi West 6.9 mph - N/A Rain Light Rain
9:55 AM 55.4 °F 55.4 °F 100% 29.97 in 10.0 mi West 6.9 mph - N/A   Overcast
10:15 AM 55.4 °F 55.4 °F 100% 29.97 in 10.0 mi West 6.9 mph - N/A   Overcast
10:35 AM 57.2 °F 55.4 °F 94% 29.98 in 10.0 mi WNW 12.7 mph - N/A   Mostly Cloudy
10:55 AM 57.2 °F 53.6 °F 88% 29.98 in 10.0 mi West 8.1 mph - N/A   Mostly Cloudy
11:15 AM 57.2 °F 53.6 °F 88% 29.99 in 10.0 mi WNW 8.1 mph - N/A   Overcast
11:35 AM 57.2 °F 53.6 °F 88% 30.00 in 10.0 mi WNW 9.2 mph - N/A   Overcast
11:55 AM 57.2 °F 53.6 °F 88% 30.00 in 10.0 mi WNW 10.4 mph - N/A   Overcast
12:15 PM 57.2 °F 53.6 °F 88% 30.00 in 10.0 mi West 9.2 mph 16.1 mph N/A   Overcast
12:35 PM 59.0 °F 53.6 °F 82% 30.00 in 10.0 mi West 6.9 mph - N/A   Overcast
12:55 PM 60.8 °F 53.6 °F 77% 29.99 in 10.0 mi WNW 10.4 mph - N/A   Scattered Clouds
1:15 PM 62.6 °F 51.8 °F 68% 29.99 in 10.0 mi West 13.8 mph 18.4 mph N/A   Scattered Clouds
1:35 PM 62.6 °F 51.8 °F 68% 29.98 in 10.0 mi WNW 8.1 mph - N/A   Clear
1:55 PM 62.6 °F 51.8 °F 68% 29.98 in 10.0 mi West 11.5 mph - N/A   Clear
2:15 PM 64.4 °F 50.0 °F 59% 29.98 in 10.0 mi West 10.4 mph - N/A   Clear
2:35 PM 62.6 °F 50.0 °F 63% 29.97 in 10.0 mi West 8.1 mph 16.1 mph N/A   Clear
2:55 PM 64.4 °F 50.0 °F 59% 29.97 in 10.0 mi West 9.2 mph - N/A   Clear
3:15 PM 64.4 °F 48.2 °F 56% 29.97 in 10.0 mi West 10.4 mph - N/A   Clear
3:35 PM 64.4 °F 48.2 °F 56% 29.98 in 10.0 mi West 8.1 mph - N/A   Clear
3:55 PM 62.6 °F 46.4 °F 55% 29.99 in 10.0 mi WNW 3.5 mph - N/A   Clear
4:15 PM 62.6 °F 48.2 °F 59% 29.99 in 10.0 mi West 6.9 mph - N/A   Clear
4:35 PM 62.6 °F 48.2 °F 59% 29.99 in 10.0 mi WNW 5.8 mph - N/A   Clear
4:55 PM 62.6 °F 48.2 °F 59% 29.99 in 10.0 mi WNW 8.1 mph - N/A   Clear
5:15 PM 60.8 °F 48.2 °F 63% 29.99 in 10.0 mi WNW 5.8 mph - N/A   Clear
5:35 PM 60.8 °F 48.2 °F 63% 30.00 in 10.0 mi WNW 5.8 mph - N/A   Clear
5:55 PM 60.8 °F 48.2 °F 63% 30.01 in 10.0 mi NW 5.8 mph - N/A   Clear
6:15 PM 60.8 °F 48.2 °F 63% 30.02 in 10.0 mi Calm Calm - N/A   Clear
6:35 PM 60.8 °F 46.4 °F 59% 30.03 in 10.0 mi NW 4.6 mph - N/A   Clear
6:55 PM 59.0 °F 46.4 °F 63% 30.04 in 10.0 mi NW 4.6 mph - N/A   Clear
7:15 PM 57.2 °F 46.4 °F 67% 30.04 in 10.0 mi NW 5.8 mph - N/A   Clear
7:35 PM 57.2 °F 46.4 °F 67% 30.05 in 10.0 mi NW 4.6 mph - N/A   Clear
7:55 PM 55.4 °F 46.4 °F 72% 30.06 in 10.0 mi WNW 3.5 mph - N/A   Clear
8:15 PM 55.4 °F 46.4 °F 72% 30.05 in 10.0 mi NW 8.1 mph - N/A   Clear
8:35 PM 55.4 °F 46.4 °F 72% 30.07 in 10.0 mi NW 3.5 mph - N/A   Clear
8:55 PM 55.4 °F 44.6 °F 67% 30.07 in 10.0 mi NW 4.6 mph - N/A   Clear
9:15 PM 55.4 °F 44.6 °F 67% 30.08 in 10.0 mi NW 4.6 mph - N/A   Clear
9:35 PM 55.4 °F 44.6 °F 67% 30.09 in 10.0 mi NW 5.8 mph - N/A   Clear
9:55 PM 53.6 °F 44.6 °F 72% 30.09 in 10.0 mi NW 6.9 mph - N/A   Clear
10:15 PM 53.6 °F 44.6 °F 72% 30.11 in 10.0 mi NNW 5.8 mph - N/A   Clear
10:35 PM 53.6 °F 44.6 °F 72% 30.12 in 10.0 mi NNW 3.5 mph - N/A   Clear
10:55 PM 53.6 °F 42.8 °F 67% 30.13 in 10.0 mi Calm Calm - N/A   Clear
11:15 PM 51.8 °F 44.6 °F 76% 30.15 in 10.0 mi Calm Calm - N/A   Clear
11:35 PM 51.8 °F 42.8 °F 71% 30.15 in 10.0 mi NW 4.6 mph - N/A   Clear
11:55 PM 51.8 °F 42.8 °F 71% 30.14 in 10.0 mi NNW 5.8 mph - N/A   Clear